Regional Weather Roundup
Issued by NWS

Home | Current Version | Previous Version | Text Only | Print | Product List | Glossary On
Versions: 1 2 3 4 5 6 7 8 9 10 11 12 13 14 15 16 17 18 19 20 21 22 23 24 25 26 27 28 29 30 31 32 33 34 35 36 37 38 39 40 41 42 43 44 45 46 47 48 49 50
443
ASUS43 KTOP 211459
RWRKS

WEATHER ROUNDUP FOR KANSAS
NATIONAL WEATHER SERVICE GOODLAND KS
1000 AM CDT THU MAY 21 2015

NOTE:  "FAIR" INDICATES FEW OR NO CLOUDS BELOW 12,000 FEET WITH NO
SIGNIFICANT WEATHER AND/OR OBSTRUCTIONS TO VISIBILITY.

KSZ001>006-013>018-027>032-041>047-211600-
NORTHWEST KANSAS

CITY           SKY/WX    TMP DP  RH WIND       PRES   REMARKS
GOODLAND       CLOUDY    48  38  68 S6        30.31S
HAYS           SUNNY     52  36  54 NE6       30.32S
HILL CITY      SUNNY     53  38  56 CALM      30.33R
RUSSELL        SUNNY     53  40  61 N8        30.31S
$$

KSZ061>065-074>080-084>089-211600-
SOUTHWEST KANSAS

CITY           SKY/WX    TMP DP  RH WIND       PRES   REMARKS
DODGE CITY     MOSUNNY   53  39  59 NE6       30.33S
ELKHART          N/A     49  39  68 E5          N/A
GARDEN CITY    PTSUNNY   50  37  61 CALM      30.32S
GREAT BEND     SUNNY     52  39  62 NE6       30.33R
LIBERAL        CLOUDY    50  39  66 E6        30.34R
$$

KSZ066>073-081>083-090>101-211600-
SOUTHEAST KANSAS

CITY           SKY/WX    TMP DP  RH WIND       PRES   REMARKS
CHANUTE        MOSUNNY   52  44  74 N10       30.29R
COFFEYVILLE    CLOUDY    53  46  77 N10       30.29R
HUTCHINSON     SUNNY     55  41  59 N10       30.32R
NEWTON         MOSUNNY   54  39  58 N10       30.33R
PARSONS        PTSUNNY   53  46  77 VRB7      30.30R
WICHITA INTL   PTSUNNY   54  42  64 N12       30.31R
WICHITA JABRA  MOSUNNY   54  43  66 N13       30.30S
WINFIELD       MOSUNNY   55  43  63 NE9       30.32R
$$

KSZ007>012-019>026-033>040-048>060-102>105-211600-
NORTHEAST KANSAS

CITY           SKY/WX    TMP DP  RH WIND       PRES   REMARKS
CONCORDIA      SUNNY     54  41  61 N8        30.31F
EMPORIA        MOSUNNY   53  42  66 N12       30.29S
LAWRENCE       SUNNY     56  43  61 N12G22    30.29F
MANHATTAN      SUNNY     56  41  57 N8        30.30F
OLATHE IND     SUNNY     52  45  77 N13       30.29S
OLATHE EXE     SUNNY     53  45  74 N13       30.27F
SALINA         SUNNY     55  43  63 N8        30.32S
TOPEKA BILLARD SUNNY     56  43  61 N10       30.30F
TOPEKA FORBES  SUNNY     56  42  59 N9        30.29S
$$



USA.gov is the U.S. government's official web portal to all federal, state and local government web resources and services.